Flag for Germany Weather past 2 weeks in Schloss Holte-Stukenbrock, North Rhine-Westphalia, Germany

Now
61 °F

Fog.


Feels Like: 61 °F
Forecast: 57 / 85 °F
Wind: 2 mph from Southwest

Location: Bad Lippspringe

Current Time: Jul 6, 2015 at 5:01:01 AM

Latest Report: Jul 6, 2015 at 4:00 AM


Visibility: 4 mi

Pressure: 30.11 "Hg

Humidity: 96%

Dew point: 59 °F

Location of Schloss Holte-StukenbrockLocation

Historic Weather in Schloss Holte-Stukenbrock — Graph

°F

Schloss Holte-Stukenbrock temperature yesterday

Maximum temperature yesterday: 83 °F (at 4:00 PM)
Minimum temperature yesterday: 65 °F (at 11:00 PM)
Average temperature yesterday: 74 °F

Past Weeks' High & Low Weather Summary

 TemperatureHumidityPressure
High100 °F (Jul 4, 4:00 PM)100% (Jun 28, 5:00 AM)30.25 "Hg (Jun 28, 5:00 AM)
Low48 °F (Jun 23, 5:00 AM)29% (Jul 4, 4:00 PM)29.67 "Hg (Jun 22, 11:00 PM)
Average67 °F68%30.07 "Hg
* Reported Jun 21 4:00 AM — Jul 6 4:00 AM, Schloss Holte-Stukenbrock, Weather by CustomWeather, © 2015

Note: Actual official high and low records may vary slightly from our data, if they occured in-between our weather recording intervals... More about our weather records

Advertising

Schloss Holte-Stukenbrock weather history for previous 24 hours

 ConditionsComfort  
Time TempWeatherWind HumidityBarometerVisibility
4:00 AM
Mon, Jul 6
61 °FFog.2 mph96%30.11 "Hg4 mi
3:00 AM63 °FOvercast.3 mph94%30.10 "Hg6 mi
2:00 AM63 °FOvercast.1 mph96%30.08 "Hg6 mi
1:00 AM63 °FLow clouds.2 mph95%30.05 "Hg7 mi
12:00 AM64 °FDrizzle. Overcast.5 mph94%30.02 "Hg6 mi
11:00 PM
Sun, Jul 5
65 °FDrizzle. Overcast.2 mph93%29.96 "Hg7 mi
10:00 PM68 °FDrizzle. Low clouds.3 mph98%29.96 "Hg2 mi
9:00 PM68 °FOvercast.2 mph96%29.92 "Hg9 mi
8:00 PM69 °FLight rain. Overcast.5 mph92%29.92 "Hg9 mi
7:00 PM69 °FOvercast.5 mph91%29.89 "Hg11 mi
6:00 PM66 °FFog.7 mph99%29.94 "Hg1 mi
5:00 PM81 °FOvercast.5 mph52%29.90 "Hg16 mi
4:00 PM83 °FScattered clouds.10 mph51%29.89 "Hg7 mi
3:00 PM80 °FSunny.3 mph60%29.97 "Hg18 mi
2:00 PM77 °FPassing clouds.5 mph63%30.00 "Hg19 mi
1:00 PM71 °FOvercast.3 mph86%30.05 "Hg6 mi
12:00 PM73 °FRain. Overcast.3 mph82%30.07 "Hg3 mi
11:00 AM81 °FPartly sunny.2 mph55%30.05 "Hg8 mi
10:00 AM77 °FPartly sunny.5 mph69%30.06 "Hg6 mi
9:00 AM79 °FOvercast.2 mph69%30.04 "Hg6 mi
8:00 AM75 °FPassing clouds.1 mph73%30.06 "Hg4 mi
7:00 AM72 °FFog.1 mph84%30.07 "Hg4 mi
5:00 AM71 °FFog.1 mph91%30.08 "Hg3 mi
Weather by CustomWeather, © 2015

See weather overviewHow to use our weather pages